Location: Chisholm
(54.9102°N, 114.1701°W)
Time: 11:40:05
(UTC+00:00)

N. Korean satellite - Pass Details

Date: 30 November 2021
Orbit: 447 x 491 km, 97.3° (Epoch: 25 January)

Event Time Altitude Azimuth Distance (km) Brightness Sun altitude
Rises 13:00:38 0° 15° (NNE) 2,490 10.3 -21.1°
Reaches altitude 10° 13:02:42 10° 17° (NNE) 1,605 9.3 -20.8°
Maximum altitude 13:06:08 74° 103° (ESE) 477 6.5 -20.4°
Drops below altitude 10° 13:09:30 10° 189° (S) 1,577 9.2 -19.9°
Sets 13:11:31 0° 191° (S) 2,441 10.1 -19.6°
